Location: Casteau
(50.5142°N, 4.0161°E)
Time: 08:06:05
(UTC+00:00)

Cosmos 2082 Rocket - Pass Details

Date: 18 September 2020
Orbit: 834 x 853 km, 71.0° (Epoch: 24 October)

Event Time Altitude Azimuth Distance (km) Brightness Sun altitude
Rises 20:38:17 0° 332° (NNW) 3,394 6.4 -25.5°
Reaches altitude 10° 20:40:53 10° 340° (NNW) 2,456 5.4 -25.9°
Maximum altitude 20:46:12 42° 50° (NE) 1,188 2.8 -26.5°
Enters shadow 20:46:15 42° 51° (NE) 1,188 2.8 -26.5°
